FW8055 Weather Reports


time (UTC)temp
F
wind
direction
speed
knots
gust
knots
rain 1hr
in
rain 24hr
in
rain mn
in
humidity
%
barometer
mb
20260902070058 59 0 0.0 0.0 0.00 0.00 0.00 82 1012.3
20260902064601 60 0 0.0 0.0 0.00 0.00 0.00 82 1012.3
20260902063100 60 0 0.0 0.0 0.00 0.00 0.00 82 1012.6
20260902061606 60 0 0.0 0.0 0.00 0.00 0.00 81 1012.8
20260902060107 61 0 0.0 0.0 0.00 0.00 0.00 80 1013.0
20260902054554 61 0 0.0 0.9 0.00 0.00 0.00 79 1013.1
20260902053052 61 0 0.0 0.0 0.00 0.00 0.00 79 1013.4
20260902051604 61 0 0.0 0.0 0.00 0.00 0.00 79 1013.4
20260902050110 61 0 0.0 0.0 0.00 0.00 0.00 79 1013.4
20260902044555 61 0 0.0 0.0 0.00 0.00 0.00 79 1013.4
20260902043057 62 0 0.0 0.0 0.00 0.00 0.00 77 1013.3
20260902041601 62 0 0.0 0.0 0.00 0.00 0.00 76 1013.3
20260902040059 63 0 0.0 0.0 0.00 0.00 0.00 75 1013.0
20260902034556 63 0 0.0 0.0 0.00 0.00 0.00 73 1012.8
20260902033103 64 0 0.0 0.0 0.00 0.00 0.00 73 1012.8
20260902031602 64 0 0.0 0.9 0.00 0.00 0.00 71 1012.7
20260902030054 65 0 0.0 2.6 0.00 0.00 0.00 71 1012.6
20260902024554 65 0 0.0 1.7 0.00 0.00 0.00 70 1012.7
20260902023053 65 0 0.0 1.7 0.00 0.00 0.00 70 1012.8
20260902021556 65 0 0.0 1.7 0.00 0.00 0.00 69 1012.8
20260902020058 66 21 0.0 2.6 0.00 0.00 0.00 68 1012.7
20260902014551 66 0 0.9 3.5 0.00 0.00 0.00 67 1012.7
20260902013100 67 0 0.0 3.5 0.00 0.00 0.00 66 1012.6
20260902011556 67 0 0.9 3.5 0.00 0.00 0.00 65 1012.7
20260902010104 67 0 0.0 3.5 0.00 0.00 0.00 66 1012.5
20260902004604 67 360 0.0 4.3 0.00 0.00 0.00 65 1012.4
20260902003053 67 23 0.0 4.3 0.00 0.00 0.00 65 1012.3
20260902001612 67 25 0.0 2.6 0.00 0.00 0.00 65 1012.4
20260902000055 67 0 0.9 4.3 0.00 0.00 0.00 65 1012.2
20260901234551 68 78 0.9 4.3 0.00 0.00 0.00 64 1012.1
20260901233100 68 21 0.9 3.5 0.00 0.00 0.00 63 1012.3
20260901231559 68 330 0.9 3.5 0.00 0.00 0.00 62 1012.1
20260901230055 69 338 0.9 3.5 0.00 0.00 0.00 61 1012.3
20260901224602 68 17 0.9 4.3 0.00 0.00 0.00 63 1012.3
20260901223059 67 24 0.9 3.5 0.00 0.00 0.00 63 1012.6
20260901221601 67 237 0.0 1.7 0.00 0.00 0.00 64 1012.5
20260901220055 68 0 0.0 1.7 0.00 0.00 0.00 62 1012.4
20260901214559 67 0 0.0 2.6 0.00 0.00 0.00 63 1012.4
20260901213116 67 42 0.0 3.5 0.00 0.00 0.00 63 1012.3
20260901211553 67 13 0.0 2.6 0.00 0.00 0.00 62 1012.4
20260901210110 67 21 0.0 1.7 0.00 0.00 0.00 62 1012.5
20260901204601 67 80 0.0 1.7 0.00 0.00 0.00 61 1012.4
20260901203055 67 0 0.0 3.5 0.00 0.00 0.00 61 1012.4
20260901201551 67 0 0.0 2.6 0.00 0.00 0.00 60 1012.6
20260901200053 67 0 0.9 2.6 0.00 0.00 0.00 60 1012.8
20260901194553 67 0 0.0 3.5 0.00 0.00 0.00 63 1012.8
20260901193057 67 132 0.9 4.3 0.00 0.00 0.00 63 1012.9
20260901191556 67 0 0.0 3.5 0.00 0.00 0.00 63 1012.9
20260901190055 66 0 0.0 4.3 0.00 0.00 0.00 67 1013.2
20260901184558 65 0 0.0 3.5 0.00 0.00 0.00 68 1013.3
20260901183106 65 228 0.9 4.3 0.00 0.00 0.00 70 1013.4
20260901181558 64 56 0.0 2.6 0.00 0.00 0.00 71 1013.4
20260901180055 64 52 0.0 3.5 0.00 0.00 0.00 71 1013.3
20260901174600 64 0 0.9 2.6 0.00 0.00 0.00 71 1013.3
20260901173055 64 244 0.0 2.6 0.00 0.00 0.00 73 1013.3
20260901171602 63 20 0.0 1.7 0.00 0.00 0.00 75 1013.3
20260901170055 63 0 0.0 3.5 0.00 0.00 0.00 76 1013.3
20260901164551 62 0 0.0 2.6 0.00 0.00 0.00 78 1013.3
20260901163103 62 0 0.9 2.6 0.00 0.00 0.00 77 1013.3
20260901161614 61 0 0.0 3.5 0.00 0.00 0.00 79 1013.4
20260901154614 61 0 0.0 2.6 0.00 0.00 0.00 79 1013.3
20260901153053 61 0 0.0 0.0 0.00 0.00 0.00 79 1013.3
20260901151601 61 0 0.0 0.0 0.00 0.00 0.00 80 1013.4
20260901150105 60 0 0.0 0.0 0.00 0.00 0.00 79 1013.2
20260901144552 60 0 0.0 0.0 0.00 0.00 0.00 79 1013.1
20260901143052 60 0 0.0 0.0 0.00 0.00 0.00 80 1013.1
20260901141602 60 0 0.0 0.0 0.00 0.00 0.00 80 1012.9
20260901134556 60 0 0.0 0.0 0.00 0.00 0.00 79 1012.7
20260901133054 60 0 0.0 0.9 0.00 0.00 0.00 80 1012.7
20260901131602 60 0 0.0 0.9 0.00 0.00 0.00 79 1012.7
20260901124553 60 0 0.0 1.7 0.00 0.00 0.00 79 1012.5
20260901123104 60 0 0.0 0.9 0.00 0.00 0.00 79 1012.5
20260901121555 60 0 0.0 0.0 0.00 0.00 0.00 79 1012.5
20260901120112 60 0 0.0 0.0 0.00 0.00 0.00 79 1012.5
20260901114557 60 0 0.0 0.0 0.00 0.00 0.00 79 1012.5
20260901113059 60 0 0.0 0.0 0.00 0.00 0.00 79 1012.4
20260901111601 60 0 0.0 0.0 0.00 0.00 0.00 79 1012.3
20260901104556 60 0 0.0 0.0 0.00 0.00 0.00 79 1012.4
20260901103101 60 0 0.0 0.0 0.00 0.00 0.00 79 1012.3
20260901101553 60 0 0.0 0.0 0.00 0.00 0.00 79 1012.3
20260901100056 60 0 0.0 0.0 0.00 0.00 0.00 79 1012.3
20260901094555 60 0 0.0 0.0 0.00 0.00 0.00 79 1012.3
20260901093100 60 0 0.0 0.0 0.00 0.00 0.00 79 1012.4
20260901091609 60 0 0.0 0.0 0.00 0.00 0.00 79 1012.5
20260901084607 60 0 0.0 0.9 0.00 0.00 0.00 80 1012.6
20260901083106 59 0 0.0 0.0 0.00 0.00 0.00 80 1012.6
20260901081556 59 0 0.0 2.6 0.00 0.00 0.00 81 1012.6
20260901074550 57 0 0.0 0.0 0.00 0.00 0.00 83 1012.4
20260901073106 57 0 0.0 0.0 0.00 0.00 0.00 82 1012.4
20260901071554 57 0 0.0 0.0 0.00 0.00 0.00 82 1012.3